Regional Weather Roundup
Issued by NWS

Home | Current Version | Previous Version | Text Only | Print | Product List | Glossary On
Versions: 1 2 3 4 5 6 7 8 9 10 11 12 13 14 15 16 17 18 19 20 21 22 23 24 25 26 27
000
ASUS44 KJAN 232210
RWRMS

MISSISSIPPI HOURLY WEATHER ROUNDUP
NATIONAL WEATHER SERVICE JACKSON MS
500 PM CDT SUN APR 23 2017

NOTE: "FAIR: INDICATES FEW OR NO CLOUDS BELOW 12,000 FEET WITH NO
SIGNIFICANT WEATHER AND/OR OBSTRUCTIONS TO VISIBILITY.

MSZ001>002-007>008-010>013-018>021-025>028-034>036-232300-
NORTHWEST MISSISSIPPI

CITY           SKY/WX    TMP DP  RH WIND       PRES   REMARKS
CLEVELAND      CLOUDY    63  48  58 N14G26    29.93S
GREENWOOD      CLOUDY    59  49  69 N8G22     29.94R
GREENVILLE     CLOUDY    65  47  52 N16       29.92S
OLIVE BRANCH   CLOUDY   N/A N/A N/A N6        29.92S
OXFORD         CLOUDY    50  46  87 N8        29.95R
TUNICA         CLOUDY    59  50  72 NE7       29.95R
WINONA         CLOUDY    56  47  73 N8        29.92S
$$

MSZ003>006-009-014>017-022>024-029>033-037>039-232300-
NORTHEAST MISSISSIPPI

CITY           SKY/WX    TMP DP  RH WIND       PRES   REMARKS
COLUMBUS AFB   CLOUDY    55  49  81 NW12      29.87F
CORINTH        DRIZZLE   52  48  87 N7G13     29.88S
STARKVILLE     CLOUDY    54  46  76 NW8       29.91S
TUPELO         CLOUDY    53  45  74 NW12      29.90R
$$

MSZ040-058-232300-
CENTRAL MISSISSIPPI

CITY           SKY/WX    TMP DP  RH WIND       PRES   REMARKS
JACKSON INTL   CLOUDY    59  48  67 NW7       29.93R
JACKSON HAWKNS CLOUDY    58  48  69 NW6       29.93S
MADISON        CLOUDY    55  46  71 NW7       29.92S
MERIDIAN KEY   CLOUDY    59  51  75 NW8       29.89R
MERIDIAN NAS   CLOUDY    59  48  67 NW12      29.88S
VICKSBURG VKS  CLOUDY    63  50  63 NW8       29.91S
$$

MSZ059>079-232300-
SOUTH MISSISSIPPI

CITY           SKY/WX    TMP DP  RH WIND       PRES   REMARKS
BROOKHAVEN     CLOUDY    57  50  77 NW7       29.95S
COLUMBIA       CLOUDY    57 N/A N/A NW6G14    29.94S
HATTIESBURG    CLOUDY    59  49  69 NW12      29.91R
LAUREL         CLOUDY    57  49  75 NW15      29.91S
MCCOMB         CLOUDY    59  47  64 N15G23    29.93S
NATCHEZ        PTSUNNY   61  50  67 NW9       29.95F
PINE BELT      CLOUDY    57  48  72 NW7       29.91S
$$

MSZ080>082-232300-
COASTAL MISSISSIPPI

CITY           SKY/WX    TMP DP  RH WIND       PRES   REMARKS
BAY ST LOUIS   PTSUNNY   64  45  48 NW12G20   29.87R
BILOXI         MOSUNNY   70  52  53 NW16G23   29.83R
PASCAGOULA       N/A     72  49  44 NW12G17   29.81F
GULFPORT       MOSUNNY   70  51  51 NW21      29.83S
$$

LAZ007>009-015>016-023>026-232300-
NORTHEAST LOUISIANA

CITY           SKY/WX    TMP DP  RH WIND       PRES   REMARKS
BASTROP        FAIR      70  46  41 NW10G16   29.94S
TALLULAH/VBURG CLOUDY    64  49  57 N8        29.93F
VIDALIA        CLOUDY    61  49  65 NW9       29.95F
$$




USA.gov is the U.S. government's official web portal to all federal, state and local government web resources and services.